MB7UEL Weather Reports


time (UTC)temp
C
wind
direction
speed
KPH
gust
KPH
rain 1hr
cm
rain 24hr
cm
rain mn
cm
humidity
%
barometer
mb
20260506130505 7 79 20.9 27.4 0.00 0.00 0.00 1018.0
20260506123506 6 80 17.7 24.1 0.00 0.00 0.00 1018.0
20260506120506 6 81 17.7 25.7 0.00 0.00 0.00 1019.0
20260506113506 7 88 14.5 20.9 0.00 0.00 0.00 1019.0
20260506110506 7 88 14.5 20.9 0.00 0.00 0.00 1019.0
20260506103506 7 87 12.9 17.7 0.00 0.00 0.00 1019.0
20260506100506 7 87 12.9 17.7 0.00 0.00 0.00 1019.0
20260506093506 7 75 12.9 17.7 0.00 0.00 0.00 1019.0
20260506090506 7 75 12.9 17.7 0.00 0.00 0.00 1019.0
20260506083505 6 64 12.9 19.3 0.00 0.00 0.00 1019.0
20260506080505 6 64 12.9 19.3 0.00 0.00 0.00 1019.0
20260506073505 6 52 14.5 20.9 0.00 0.00 0.00 1019.0
20260506070505 6 52 14.5 20.9 0.00 0.00 0.00 1019.0
20260506060505 6 38 16.1 22.5 0.00 0.00 0.00 1019.0
20260506050505 6 27 16.1 22.5 0.00 0.00 0.00 1019.0
20260506043506 6 26 11.3 17.7 0.00 0.00 0.00 1019.0
20260506040506 6 26 11.3 17.7 0.00 0.00 0.00 1019.0
20260506033506 7 49 8.0 14.5 0.00 0.00 0.00 1019.0
20260506030506 7 49 8.0 14.5 0.00 0.00 0.00 1019.0
20260506023506 7 69 11.3 16.1 0.00 0.00 0.00 1019.0
20260506020506 7 69 11.3 16.1 0.00 0.00 0.00 1019.0
20260506013505 7 72 11.3 17.7 0.00 0.00 0.00 1019.0
20260506010506 7 72 11.3 17.7 0.00 0.00 0.00 1019.0
20260506003505 7 73 12.9 19.3 0.00 0.00 0.00 1020.0
20260506000505 7 62 14.5 20.9 0.00 0.00 0.00 1020.0
20260505233505 7 69 17.7 24.1 0.00 0.00 0.00 1020.0
20260505230505 7 69 17.7 24.1 0.00 0.00 0.00 1020.0
20260505223505 7 69 20.9 29.0 0.00 0.00 0.00 1020.0
20260505220505 7 69 20.9 29.0 0.00 0.00 0.00 1020.0
20260505213506 7 76 20.9 27.4 0.00 0.00 0.00 1020.0
20260505210505 7 76 20.9 27.4 0.00 0.00 0.00 1020.0
20260505203506 7 73 19.3 27.4 0.00 0.00 0.00 1020.0
20260505200506 7 73 19.3 27.4 0.00 0.00 0.00 1020.0
20260505193506 7 71 19.3 25.7 0.00 0.00 0.00 1020.0
20260505190506 7 71 19.3 25.7 0.00 0.00 0.00 1020.0
20260505183506 7 69 22.5 29.0 0.00 0.00 0.00 1019.0
20260505180506 7 67 24.1 32.2 0.00 0.00 0.00 1019.0
20260505173506 7 64 25.7 33.8 0.00 0.00 0.00 1019.0
20260505170506 7 64 25.7 33.8 0.00 0.00 0.00 1019.0
20260505163505 7 60 25.7 33.8 0.00 0.00 0.00 1019.0
20260505160505 7 60 25.7 33.8 0.00 0.00 0.00 1019.0
20260505150505 7 55 25.7 35.4 0.00 0.00 0.00 1019.0
20260505140505 7 53 25.7 35.4 0.00 0.00 0.00 1019.0